Newton, KS

10:55 AM CST on November 18, 2019 (GMT -0600)
Newton City County

Weather History for KEWK - August, 2019

Change the Weather History Date:

Wednesday, August 14, 2019

  Actual Average Record
Temperature  
Mean Temperature 74 °F -  
Max Temperature 84 °F 86 °F 100 °F (2007)
Min Temperature 64 °F 64 °F 53 °F (2004)
Cooling Degree Days 9    
Growing Degree Days 24 (Base 50)    
Moisture  
Dew Point 64 °F    
Average Humidity 73    
Maximum Humidity 94    
Minimum Humidity 46    
Precipitation  
Precipitation 0.10 in - - ()
Sea Level Pressure  
Sea Level Pressure 30.08 in    
Wind  
Wind Speed 11 mph (North)    
Max Wind Speed 21 mph    
Max Gust Speed 25 mph    
Visibility 10 miles    
Events Rain , Thunderstorm    
Averages and records for this station are not official NWS values.
T = Trace of Precipitation, MM = Missing Value Source: NWS Daily Summary

Daily Weather History Graph

Daily Weather History Graph

Search for Another Location

Airport or City:

Astronomy

Aug. 14, 2019 Rise Set
Actual Time 6:43 AM CDT 8:23 PM CDT
Civil Twilight 6:14 AM CDT 8:51 PM CDT
Nautical Twilight 5:40 AM CDT 9:25 PM CDT
Astronomical Twilight 5:04 AM CDT 10:01 PM CDT
Moon 8:17 PM CDT (8/14) 5:43 AM CDT (8/14)
Length of Visible Light 14h 37m
Length of Day
13h 40m
Waxing Gibbous, 99% of the Moon is Illuminated
Aug 14
Waxing Gibbous
Aug 15
Full
Aug 23
Last Quarter
Aug 30
New
Sep 5
First Quarter

Hourly Weather History & Observations

Time (CDT) Temp. Heat Index Dew Point Humidity Pressure Visibility Wind Dir Wind Speed Gust Speed Precip Events Conditions
12:27 AM 68.0 °F - 64.4 °F 88% 30.18 in 10.0 mi West 20.7 mph 25.3 mph 0.01 in Rain Light Rain
12:36 AM 66.2 °F - 64.4 °F 94% 30.18 in 10.0 mi West 16.1 mph - 0.02 in Rain , Thunderstorm Thunderstorms and Rain
12:51 AM 66.2 °F - 62.6 °F 88% 30.17 in 10.0 mi West 13.8 mph - 0.04 in Rain Light Rain
12:56 AM 66.9 °F - 63.0 °F 87% 30.13 in 10.0 mi West 15.0 mph - 0.05 in Rain Light Rain
1:56 AM 68.0 °F - 64.9 °F 90% 30.07 in 10.0 mi South 10.4 mph - 0.05 in Rain Light Rain
2:56 AM 69.1 °F - 62.1 °F 78% 30.02 in 10.0 mi NNW 10.4 mph 16.1 mph 0.00 in   Unknown
3:17 AM 68.0 °F - 62.6 °F 83% 30.09 in 10.0 mi North 16.1 mph - N/A   Unknown
3:56 AM 68.0 °F - 63.0 °F 84% 30.03 in 10.0 mi NE 8.1 mph - N/A   Unknown
4:56 AM 68.0 °F - 62.1 °F 81% 30.02 in 10.0 mi NNE 9.2 mph - N/A   Unknown
5:56 AM 66.0 °F - 60.1 °F 81% 30.04 in 10.0 mi NE 4.6 mph - N/A   Unknown
6:56 AM 64.0 °F - 61.0 °F 90% 30.08 in 10.0 mi South 3.5 mph - N/A   Unknown
7:56 AM 68.0 °F - 63.0 °F 84% 30.10 in 10.0 mi Calm Calm - N/A   Unknown
8:56 AM 71.1 °F - 64.9 °F 81% 30.12 in 10.0 mi West 5.8 mph - N/A   Unknown
9:56 AM 75.9 °F - 64.0 °F 67% 30.11 in 10.0 mi North - - N/A   Unknown
10:56 AM 80.1 °F 81.5 °F 63.0 °F 56% 30.11 in 10.0 mi Variable 4.6 mph - N/A   Clear
11:56 AM 82.0 °F 83.4 °F 64.0 °F 54% 30.11 in 10.0 mi West 8.1 mph - N/A   Overcast
12:56 PM 84.0 °F 84.5 °F 62.1 °F 47% 30.09 in 10.0 mi West 4.6 mph - N/A   Clear
1:56 PM 84.9 °F 85.4 °F 62.1 °F 46% 30.07 in 10.0 mi Variable 3.5 mph - N/A   Clear
3:56 PM 84.9 °F 87.6 °F 66.9 °F 55% 30.04 in 10.0 mi North 8.1 mph - N/A   Unknown
4:56 PM 84.9 °F 87.6 °F 66.9 °F 55% 30.04 in 10.0 mi NE 8.1 mph - N/A   Unknown
5:56 PM 82.9 °F 85.4 °F 66.9 °F 58% 30.03 in 10.0 mi ENE 8.1 mph - N/A   Unknown
6:56 PM 81.0 °F 83.3 °F 66.9 °F 62% 30.04 in 10.0 mi NE 8.1 mph - N/A   Unknown
7:56 PM 79.0 °F - 66.0 °F 64% 30.05 in 10.0 mi NE 6.9 mph - N/A   Unknown
8:56 PM 73.9 °F - 66.0 °F 76% 30.08 in 10.0 mi NNE 9.2 mph - N/A   Unknown
9:56 PM 73.0 °F - 64.0 °F 73% 30.09 in 10.0 mi ENE 5.8 mph - N/A   Unknown
10:56 PM 70.0 °F - 64.0 °F 81% 30.09 in 10.0 mi Calm Calm - N/A   Unknown
11:56 PM 70.0 °F - 64.0 °F 81% 30.08 in 10.0 mi East 3.5 mph - N/A   Unknown